ASIASAT 5 (35696 NORAD) Tracking and Keplerian Element Data

This shows tracking and keplerian element data for the satellite.

Feedback or suggestion? Click here.




ElementValue
Catalog35696
NameASIASAT 5
Epoch Orbit5671
Epoch Day34.77616034
Epoch Year2025
RAAN263.8996
Inclination0.0583
Eccentricity0.0001643
Argument of Perigee46.5013
Mean Anonmoly203.6517
Mean Motion1.0026847
Decay Rate-3.02E-06
L11 35696U 09042A 25034.77616034 -.00000302 00000+0 00000+0 0 9996
L22 35696 0.0583 263.8996 0001643 46.5013 203.6517 1.00268470 56714



Live tracking and technical data element details for ASIASAT 5 (NORAD 35696). ASIASAT 5 can be tracked NOW for your location showing map with azimuth and elevation plus other details from your city location.







IsCatalogInMostPopularTable: catalog: 35696, numindb: 331
Update: records affected: 1



GetName: 35696 ASIASAT 5

Hit Count: updated at: Thu, 22 May 2025 03:49:53 GMT